sat.trackr.live / text

‹ back to catalog

ES'HAIL 1

NORAD 39233 · 2013-044A

PAYLOAD ACTIVE UNKNOWN

§ Identity

Operator
Country
AB
Launch date
2013-08-29
Launch site
FRGUI
Launch vehicle
Mass (kg)
RCS (m²)
12.51

Purposes: comms

External: N2YO · Heavens-Above · Gunter

§ Orbital elements

Epoch: 2026-05-25T03:51:54.064224Z

Period
1,436.11 min
Inclination
0.0520°
Eccentricity
0.0002632
Mean motion
1.00271146 rev/d
Perigee alt
35,775.7 km
Apogee alt
35,797.9 km
Semi-major
42,164.9 km
B*
0.0000e+0
RAAN
7.7256°
Arg perigee
49.9687°
Mean anomaly
268.5139°
Rev number
4,639

§ Raw data

ES'HAIL 11 39233U 13044A   26145.16104241  .00000141  00000+0  00000+0 0  99932 39233   0.0520   7.7256 0002632  49.9687 268.5139  1.00271146 46390

JSON: /api/v1/satellites/39233 · /tle

For live sub-satellite position, see the globe view (requires WebGL).

§ Visibility from observer

Set your observer location to see the next 7 days of passes ≥ 10°. The values pass through the URL so the page stays shareable.

No JS? Fill the form by hand. The geolocation button needs JavaScript.